Tracking 19634 objects as of 23-May-2019
HD Live streaming from Space Station
objects crossing your sky now

INTELSAT 4-F1

Track INTELSAT 4-F1 now!
INTELSAT 4-F1 is classified as:


NORAD ID: 7815
Int'l Code: 1975-042A
Perigee: 36,045.7 km
Apogee: 36,115.2 km
Inclination: 13.3 °
Period: 1,450.8 minutes
Semi major axis: 42451 km
RCS: 12.6 m2 (large)
Launch date: May 22, 1975
Source: International Telecommunications Satellite Organization (ITSO)
Launch site: AIR FORCE EASTERN TEST RANGE (AFETR)
aabbcc
Your satellite tracking list
Your tracking list is empty




NASA's NSSDC Master Catalog

Two Line Element Set (TLE):
1  7815U 75042A   19142.06534211 +.00000057 +00000-0 +00000-0 0  9990
2  7815 013.3033 329.3938 0008181 199.2283 160.6831 00.99257681096316
Source of the keplerian elements: AFSPC